Theta_e
292 292 292 292 292 292 291 291 291 291 290 290 290 290 290 290 289 288 289 288 288 288 287 287 287 287 287 286 286 286 286 286 285 285 285 284 284 283 283 282 281 281 282 282 282 282 282 282 283 283 283 284 284 284 284 284 284 284 283 283 283 282 281
290 290 291 291 292 291 291 291 291 290 290 290 290 290 290 289 289 289 289 288 288 288 287 287 287 287 287 286 285 285 285 285 285 284 284 284 284 283 283 282 281 281 281 281 281 281 281 281 281 282 282 282 283 283 283 283 283 283 283 283 283 282 281
289 289 290 290 290 291 290 290 290 289 289 289 289 289 289 289 289 289 289 288 288 288 287 287 287 287 287 285 285 285 285 285 284 284 283 283 283 283 283 282 281 280 280 280 280 280 281 281 281 281 281 281 281 281 281 282 282 282 282 282 281 281 280
287 288 288 289 289 289 289 289 289 289 288 288 288 288 288 288 288 288 288 288 288 288 287 286 286 287 286 285 285 285 285 284 284 283 283 283 282 282 282 282 280 280 280 280 280 280 280 280 280 281 280 280 280 280 280 280 280 280 280 280 280 280 279
287 287 287 287 287 288 288 288 288 288 288 288 288 288 288 288 287 287 287 287 287 287 287 286 286 286 286 285 284 285 284 284 283 283 282 282 282 282 281 281 280 280 279 279 279 279 280 280 280 280 280 279 279 279 279 279 279 279 279 279 279 278 278
287 287 287 287 286 286 287 287 287 287 287 287 287 287 287 287 286 287 287 287 287 287 286 286 286 286 285 284 284 284 284 283 283 283 282 282 282 281 281 280 280 279 279 279 279 279 279 279 279 279 279 279 279 279 278 278 278 278 278 278 278 278 278
287 287 287 287 286 286 286 286 286 286 286 287 286 286 286 286 286 286 286 286 286 286 286 285 285 285 285 284 284 284 284 283 283 282 282 282 282 281 280 280 279 279 279 278 278 278 278 278 279 279 279 278 278 278 277 277 277 277 277 278 278 278 277
285 285 286 286 286 286 286 286 286 286 286 286 286 286 285 285 285 285 285 285 285 285 285 285 285 285 285 284 284 284 283 283 283 282 282 282 281 281 280 280 279 279 278 278 278 278 278 278 278 278 278 277 277 276 276 276 276 277 277 277 277 277 277
283 283 284 284 284 285 285 285 285 285 285 285 285 285 285 285 285 284 284 284 284 284 284 284 284 284 284 284 283 283 283 283 282 282 281 281 281 280 280 279 279 278 278 278 278 278 277 277 277 277 277 276 276 277 277 277 277 277 277 277 277 277 276
282 282 282 282 283 283 283 284 284 284 284 284 284 284 284 284 284 284 284 283 283 283 283 283 283 283 283 283 283 283 282 282 282 281 281 281 280 280 280 280 279 278 278 278 277 278 277 277 277 278 277 277 278 278 277 277 276 276 277 276 276 276 276
281 281 281 281 281 281 282 282 282 283 283 283 283 283 283 283 283 283 283 283 283 283 283 283 282 282 282 282 282 282 282 282 281 281 281 280 280 280 280 279 279 279 278 278 278 278 277 277 278 278 277 278 278 277 276 276 276 276 276 276 276 276 276
279 280 280 280 280 280 280 281 281 281 281 281 281 282 282 282 282 282 282 282 282 282 282 282 282 282 282 282 282 282 281 281 281 281 280 280 280 279 279 279 279 279 278 278 278 278 277 277 278 277 277 277 277 277 276 276 276 276 275 275 276 276 276
278 278 278 279 279 279 279 279 279 280 280 280 280 280 280 280 280 280 280 280 280 281 281 281 281 281 281 281 281 281 281 280 280 280 280 279 279 279 279 279 278 278 278 278 278 278 278 278 277 277 277 278 277 277 277 276 276 275 275 275 276 276 276
277 277 277 277 277 278 278 278 278 278 278 278 278 278 278 279 279 279 279 279 279 279 279 280 280 280 280 280 280 280 280 280 279 279 279 279 279 278 278 278 278 277 277 277 277 277 277 277 277 277 277 277 277 276 276 276 276 275 275 275 276 275 274
275 275 276 276 276 276 276 277 277 277 277 277 277 276 277 277 278 278 278 278 278 278 279 279 279 279 279 279 279 279 279 279 279 279 278 278 278 278 278 278 277 277 277 276 276 276 276 276 276 276 276 276 276 276 276 276 275 275 275 275 274 273 272
274 274 274 275 275 275 275 275 276 276 276 276 275 275 276 276 277 277 277 277 277 278 278 278 278 278 278 278 278 279 279 279 278 278 278 278 278 278 277 277 277 277 277 276 276 276 276 276 276 276 275 275 275 275 275 275 274 273 273 272 272 271 271
273 273 273 273 274 274 274 274 274 274 275 274 274 274 274 275 275 275 276 276 276 276 276 277 277 277 277 277 277 277 278 278 278 278 278 278 277 277 277 277 277 276 276 276 276 276 276 275 275 275 275 275 275 274 274 274 273 273 272 271 271 271 271
272 272 272 272 273 273 273 273 273 273 273 273 273 273 273 274 274 274 274 274 275 275 275 275 275 276 276 276 276 276 276 276 276 276 277 277 277 277 277 276 276 276 275 275 275 275 275 275 275 275 274 274 274 274 274 274 273 273 272 272 271 271 271
271 271 271 272 272 272 272 272 272 273 273 273 273 273 273 273 273 273 273 273 273 274 274 274 274 274 275 275 275 275 275 275 275 275 275 276 276 276 276 276 276 275 275 275 275 275 275 275 275 274 274 274 273 273 273 273 273 273 272 272 272 271 271
270 270 270 270 270 270 270 271 271 272 272 272 272 272 272 272 272 272 272 272 272 272 273 273 273 273 274 274 274 274 274 274 274 275 275 275 275 275 275 275 275 275 275 275 274 274 274 274 274 274 273 273 273 272 272 273 273 272 272 272 271 271 271
269 269 269 269 269 269 269 269 269 270 270 270 270 270 270 270 270 270 270 270 270 270 271 271 272 272 273 273 273 273 273 273 274 274 275 275 275 275 275 275 275 275 275 274 274 274 274 274 274 273 273 273 273 272 272 272 272 272 272 271 271 271 271
269 269 269 269 269 269 269 269 269 269 269 269 269 269 268 268 268 268 268 268 268 269 269 269 269 270 271 271 272 272 272 273 273 274 274 274 274 274 274 274 275 274 274 274 274 274 274 274 273 273 273 273 273 272 272 272 271 271 271 271 271 271 270
268 268 268 269 269 269 269 268 268 268 268 268 268 268 268 268 267 267 267 267 267 267 267 268 268 268 268 269 270 270 271 271 272 273 273 274 274 274 274 274 274 274 274 274 274 274 274 274 273 273 273 273 273 272 272 272 271 271 271 271 270 270 270
268 268 268 268 269 269 269 268 268 268 268 268 268 268 267 267 267 267 267 267 267 267 267 267 267 268 268 268 268 268 269 270 271 271 272 272 273 273 273 273 273 273 273 273 273 273 273 273 273 273 273 273 273 272 272 272 271 271 271 270 270 270 270
267 267 267 268 268 268 269 268 268 268 267 267 267 267 267 267 267 267 266 266 266 266 266 267 267 267 267 267 267 268 268 268 269 270 271 271 272 272 272 272 272 272 272 272 272 272 272 273 273 273 273 272 272 272 272 271 271 270 270 270 270 270 269
266 265 265 266 266 267 267 267 267 267 267 267 267 267 266 266 266 265 265 265 265 266 266 266 266 266 266 267 267 267 267 267 268 268 269 269 270 271 271 271 271 271 270 270 270 271 271 271 272 272 272 272 272 272 272 271 271 271 270 270 270 269 269
265 264 264 264 265 266 266 266 266 266 267 267 266 265 265 264 264 264 264 264 265 265 265 266 265 265 265 266 266 266 267 267 267 267 267 268 268 269 269 270 270 270 269 269 269 269 269 270 270 270 271 271 271 271 271 271 271 271 270 270 270 270 269
264 263 263 263 264 265 265 264 264 265 266 265 264 264 263 263 263 263 263 263 264 264 264 264 264 264 264 265 265 265 265 266 266 266 267 267 267 267 267 268 268 268 268 268 268 268 268 268 269 269 269 270 270 270 270 270 270 270 270 270 270 269 269
263 263 262 263 263 263 263 262 262 263 264 263 263 263 263 262 262 262 262 262 263 264 264 264 264 264 264 264 264 264 264 264 265 265 265 266 266 266 266 267 266 266 266 266 266 266 266 267 267 268 268 268 269 269 269 269 269 269 269 269 269 269 269
263 262 262 263 263 263 262 261 261 262 262 262 262 262 262 262 261 261 261 262 262 263 263 263 263 263 262 262 263 262 262 263 263 263 264 264 264 265 265 265 266 266 266 266 265 265 265 265 266 266 267 267 268 268 268 268 268 268 268 268 268 268 268
263 263 263 262 262 262 261 261 261 261 261 261 260 260 260 261 261 260 260 261 261 261 261 261 261 261 260 260 261 261 261 261 261 261 261 262 263 263 263 264 264 264 265 265 265 265 265 265 265 265 266 266 267 267 267 267 267 267 267 267 267 267 267
263 263 263 262 262 261 260 260 261 260 260 259 259 258 260 261 260 259 260 260 259 259 259 258 258 258 258 258 258 258 258 259 259 259 259 259 260 261 261 262 262 262 263 263 264 264 264 264 264 264 264 265 266 266 266 266 266 266 266 266 266 266 267
263 263 262 262 262 261 260 260 260 260 259 258 257 257 259 259 258 258 258 258 258 258 257 257 256 256 256 256 256 256 256 256 256 257 257 257 258 258 259 259 260 260 261 261 262 262 263 263 263 263 263 263 264 265 265 265 265 265 266 266 266 266 265
263 262 262 262 261 261 260 260 259 259 258 257 256 257 258 257 257 257 257 256 256 256 255 255 255 254 254 254 254 254 254 254 255 255 255 255 256 256 256 257 258 259 259 260 260 260 261 261 262 262 262 262 263 263 264 264 265 265 265 265 265 265 265
262 261 261 260 260 260 259 259 259 258 257 256 256 257 257 256 256 257 256 256 255 255 254 253 253 253 253 253 252 252 252 253 253 253 253 254 254 254 255 255 256 257 257 258 258 259 259 260 260 261 261 261 262 262 262 263 264 264 264 264 264 264 264
261 261 260 259 259 259 259 258 258 257 256 255 255 255 255 255 255 255 254 254 253 253 253 252 252 252 252 252 251 252 252 252 252 252 252 252 253 253 253 254 254 255 255 256 256 257 258 258 259 259 260 260 261 261 261 262 262 263 263 263 264 264 264
Wind_Speed
31 32 32 33 33 33 33 34 35 35 36 37 38 39 39 40 41 42 43 44 45 46 47 49 49 50 49 49 50 51 51 51 52 52 53 53 54 54 54 54 52 53 55 53 48 46 43 41 40 40 40 40 40 39 40 40 40 39 40 40 40 38 37
29 30 31 31 32 32 32 33 33 34 35 37 38 39 39 40 41 42 43 44 46 47 47 49 49 49 49 49 50 51 51 51 51 52 53 53 54 54 54 53 52 52 53 53 50 48 47 45 43 43 43 43 42 41 41 42 42 41 41 41 40 39 38
28 28 28 29 30 30 30 31 32 32 34 36 37 38 38 39 40 41 43 44 46 46 47 48 49 49 49 49 50 50 51 51 51 52 53 53 53 54 53 53 52 51 51 51 49 48 48 47 46 45 45 44 43 41 41 41 41 41 40 40 40 39 38
26 27 27 28 28 29 29 30 30 30 32 34 35 37 37 38 40 41 42 44 45 46 47 48 49 49 49 49 50 50 50 50 51 52 52 53 53 53 53 52 50 50 50 49 47 47 48 48 46 46 45 43 41 41 40 40 40 40 40 39 39 39 38
26 27 27 28 28 29 29 29 30 30 32 33 34 35 37 38 39 41 42 43 44 45 47 48 49 49 48 49 50 50 51 50 50 51 51 52 52 52 52 51 50 49 48 48 47 47 47 46 45 45 44 42 41 40 40 40 40 41 40 40 39 39 38
28 27 27 28 28 28 29 30 30 31 32 33 34 35 36 37 38 39 40 42 43 44 46 48 48 48 48 50 50 51 50 50 49 49 50 50 51 51 50 50 49 49 47 47 47 47 46 46 46 45 44 43 42 42 41 41 41 41 41 41 40 40 40
30 29 28 28 29 29 29 30 30 31 31 33 33 34 35 35 35 37 38 39 41 42 44 46 47 47 48 49 50 50 50 49 49 49 49 50 50 49 49 49 49 48 47 47 47 46 46 48 47 46 45 44 41 40 40 40 41 41 42 42 42 41 40
30 30 29 29 29 30 30 30 31 31 31 32 32 33 33 33 33 34 35 37 38 40 42 44 45 46 47 48 49 49 49 49 49 49 49 49 49 49 49 49 49 48 47 48 47 46 46 47 47 47 46 43 40 39 40 41 41 41 42 42 41 41 40
28 29 29 29 29 29 29 30 30 31 32 32 32 32 32 32 32 32 33 34 36 37 39 41 43 44 45 46 47 47 47 48 48 48 49 48 48 48 48 49 48 48 48 48 47 47 46 46 48 48 47 45 44 44 43 42 42 42 42 41 41 40 40
27 28 28 28 28 28 28 28 28 28 29 30 30 31 31 31 31 31 31 32 34 35 37 38 40 42 42 43 44 45 46 46 47 47 48 48 48 48 48 48 48 48 48 47 47 47 46 46 49 50 49 48 48 46 44 43 43 43 42 41 41 42 41
27 27 27 28 28 28 27 27 27 27 27 27 27 28 28 29 29 29 30 30 32 33 34 35 36 38 39 40 41 42 44 44 45 46 46 46 47 47 47 47 47 48 48 47 47 47 47 47 49 50 48 48 47 46 45 44 43 43 43 43 44 44 43
26 26 26 27 27 27 27 27 27 26 26 26 25 25 24 25 26 27 27 28 29 30 31 31 32 33 35 36 37 38 40 41 42 43 44 44 45 45 46 47 47 47 47 47 47 47 47 48 48 48 47 46 45 44 43 42 43 43 44 44 45 44 42
25 25 25 26 26 26 26 26 26 25 25 24 24 23 21 21 22 23 24 25 25 26 27 27 28 29 30 31 32 34 35 37 38 39 40 41 42 43 44 45 46 46 46 46 46 47 47 47 46 46 46 44 42 41 41 41 43 43 44 45 45 43 40
24 23 23 24 24 24 24 24 24 23 23 23 22 20 19 20 22 23 23 23 23 23 24 24 24 25 26 27 27 28 29 31 33 35 37 38 39 41 42 43 44 45 45 46 47 48 48 46 45 44 43 40 39 39 39 39 40 41 41 42 41 38 35
23 23 23 22 23 23 23 23 23 22 21 20 18 17 19 21 22 23 24 25 24 24 24 23 22 23 24 25 26 25 24 24 25 28 31 34 37 39 40 41 43 43 44 45 46 47 47 46 45 44 42 40 39 38 36 35 34 35 34 33 33 33 32
21 22 22 22 22 23 23 22 22 21 20 18 15 15 19 22 22 22 23 24 25 25 24 24 23 22 22 24 25 26 25 24 23 24 26 29 32 34 37 39 40 40 41 43 44 45 45 45 44 43 43 42 40 39 36 33 32 32 30 29 30 31 31
21 21 22 22 22 22 22 21 20 19 18 17 15 16 20 21 21 21 22 22 23 23 23 23 23 22 22 22 21 22 23 24 25 27 27 27 28 30 33 36 36 37 39 39 39 41 42 43 43 43 43 43 41 40 37 34 34 34 33 32 32 32 33
21 20 21 21 21 22 22 21 19 18 18 17 16 17 20 21 21 21 21 22 22 22 22 21 20 20 22 22 21 21 20 21 24 27 29 29 29 30 32 33 33 34 36 36 36 36 37 38 40 40 41 42 42 41 39 37 36 35 33 34 35 35 34
21 20 20 21 21 22 22 22 21 19 19 19 18 19 21 23 23 23 23 23 23 23 22 21 19 18 19 20 21 20 19 19 21 25 28 29 30 32 33 32 30 30 31 32 35 36 35 36 37 36 36 38 38 39 39 38 36 35 34 34 35 35 34
22 21 20 20 21 21 22 23 22 21 20 21 20 20 22 23 24 24 24 24 25 25 24 23 22 20 19 19 19 18 17 17 17 21 26 29 31 33 31 29 28 28 28 29 31 33 34 35 37 36 34 33 33 35 36 36 34 33 33 33 33 33 34
22 21 20 20 20 20 21 22 22 21 21 21 20 20 20 21 22 22 23 24 25 26 26 25 24 23 21 20 20 18 17 17 17 18 22 27 31 32 30 28 28 28 28 29 29 29 31 33 36 37 37 35 33 33 34 35 35 34 34 33 33 33 33
22 21 20 19 19 19 20 20 21 21 21 21 21 20 19 20 20 19 20 23 25 25 25 25 25 24 24 23 22 20 19 19 18 19 21 23 26 27 27 29 32 31 30 30 30 30 30 32 33 36 37 37 37 36 35 35 37 37 36 36 36 35 35
22 22 21 20 20 20 20 20 20 21 21 21 21 20 19 19 18 17 19 22 23 22 23 24 23 24 23 23 22 20 19 19 19 21 24 25 25 25 23 23 28 32 34 34 33 33 33 33 33 34 35 36 37 38 37 38 39 39 38 38 37 37 38
22 22 22 22 21 20 20 21 21 21 21 21 21 21 20 19 18 18 20 21 21 21 22 22 23 22 21 20 20 19 19 20 21 23 25 27 28 29 27 23 23 27 30 33 36 37 37 37 36 36 36 35 34 34 35 37 39 41 41 40 39 39 39
21 21 22 22 22 22 22 23 24 24 23 24 23 22 22 21 20 20 21 21 21 22 22 22 22 22 22 21 21 22 23 24 25 26 27 28 29 30 31 30 28 25 24 26 31 35 38 38 38 37 35 33 31 31 32 33 35 37 39 40 40 41 41
21 22 23 24 25 26 27 27 28 27 26 26 26 25 24 24 23 23 23 24 24 24 24 24 24 24 24 23 22 23 24 25 26 27 29 31 31 32 32 33 32 30 26 24 24 27 31 34 35 36 35 34 33 33 33 32 32 32 33 34 35 37 38
22 22 24 27 29 30 30 30 30 29 28 28 27 27 27 25 24 23 24 26 27 27 27 26 26 25 25 25 24 23 23 24 25 26 27 29 31 33 34 35 35 34 32 29 26 25 25 26 27 29 32 33 34 34 34 34 33 32 32 32 32 33 35
20 20 24 28 30 31 31 30 30 30 29 28 27 26 26 24 21 21 25 27 28 29 29 28 28 28 27 27 26 26 25 25 25 25 26 27 28 30 32 34 35 36 36 35 32 29 27 26 25 25 27 28 30 31 32 32 32 32 32 32 33 34 35
16 18 24 27 29 29 29 27 28 28 28 25 22 22 23 22 18 20 27 31 31 32 33 32 32 31 30 29 28 27 26 26 26 26 26 26 26 27 29 30 31 32 33 33 32 31 29 27 26 26 26 26 26 27 28 30 31 32 33 34 36 37 37
14 17 23 26 27 26 23 23 26 28 25 21 18 19 23 23 19 21 29 34 35 35 35 34 33 32 31 30 29 28 27 26 25 25 25 25 25 25 25 26 28 28 29 28 28 28 27 26 25 26 27 28 28 27 27 28 29 31 32 34 35 37 37
19 21 23 25 25 24 22 23 26 26 23 19 17 19 25 26 24 26 31 34 34 33 31 30 30 28 27 26 26 25 25 24 24 24 24 24 24 24 23 23 24 25 26 27 27 27 27 26 25 25 27 29 30 29 29 28 28 28 30 32 33 34 35
23 23 23 24 24 22 22 24 24 23 20 16 15 19 25 26 24 26 29 29 28 27 25 24 23 22 22 21 21 21 21 21 22 22 22 23 23 23 23 23 23 22 23 24 25 26 26 26 25 25 25 27 28 29 29 29 29 29 31 32 33 33 33
24 25 24 23 22 20 20 21 21 21 18 15 15 20 25 24 23 24 25 24 23 21 20 19 18 18 18 18 18 18 18 18 19 19 19 20 20 21 22 22 23 23 23 23 23 23 24 24 24 24 24 25 26 28 30 31 31 31 32 33 33 32 32
24 24 22 21 19 19 20 21 21 20 18 16 18 23 25 24 22 20 19 19 19 18 17 17 17 17 17 17 18 18 18 18 18 18 18 18 19 20 20 21 21 22 23 23 23 23 23 23 23 23 23 24 24 26 28 31 32 32 33 33 33 32 32
23 21 20 20 19 19 20 21 20 20 18 18 21 24 24 22 21 20 18 18 18 17 17 17 17 17 17 17 17 18 18 18 18 17 17 18 18 19 20 20 20 20 21 22 23 23 23 22 22 22 22 22 23 24 26 29 31 32 33 33 33 32 32
20 18 18 19 20 20 20 20 20 20 20 19 21 23 23 22 22 21 20 19 18 17 17 16 16 16 16 16 16 17 17 17 18 17 17 16 16 17 18 19 19 19 19 20 21 21 22 22 22 21 21 21 22 23 24 26 28 30 31 32 32 32 32
Wind_Direction
285 284 282 279 277 277 278 279 279 279 279 277 276 276 275 275 273 272 273 272 269 268 266 264 265 265 265 263 260 261 261 260 260 258 257 257 256 255 254 251 246 246 251 254 254 255 255 254 253 252 252 251 250 249 249 250 251 250 250 252 253 252 250
282 282 281 278 276 275 275 276 276 277 277 275 275 274 274 274 273 273 274 273 270 269 267 265 265 266 266 262 260 261 260 260 259 257 257 257 255 255 255 253 248 247 249 251 252 253 253 253 252 251 251 251 251 250 250 251 251 251 251 252 253 252 250
285 283 281 280 278 276 275 275 275 276 276 275 274 274 274 274 273 273 274 272 272 271 268 265 266 267 266 262 259 261 260 259 258 256 256 256 255 255 256 254 250 247 248 250 251 252 253 253 252 253 253 252 252 251 249 250 251 251 252 251 251 250 249
290 288 286 284 282 281 280 278 277 277 276 275 275 275 275 274 273 273 272 272 272 271 268 266 266 267 266 262 260 261 261 258 257 255 254 255 255 254 255 254 251 248 248 249 249 251 252 253 253 254 254 252 250 248 248 249 250 250 250 250 249 248 247
295 292 290 287 285 283 282 280 279 277 275 274 274 274 274 273 272 272 271 271 271 270 268 266 266 268 266 261 260 261 260 258 257 255 254 255 255 254 254 252 250 249 248 247 247 249 251 253 253 253 252 250 248 247 246 247 247 248 249 248 247 246 245
297 295 292 289 287 285 283 281 279 278 276 274 273 272 272 272 271 271 271 270 270 269 268 267 267 267 265 261 261 261 261 259 258 256 254 255 255 254 253 251 249 249 246 245 247 247 248 250 251 250 251 250 249 248 247 246 246 246 246 246 245 245 245
296 295 293 291 288 286 284 282 280 279 277 275 273 271 270 270 270 270 270 269 269 269 268 267 267 267 265 263 262 263 262 260 258 257 255 255 256 254 251 250 249 247 245 245 246 245 245 248 250 250 251 251 250 248 246 245 244 244 244 245 245 246 246
296 295 293 291 289 287 286 284 281 280 278 277 275 272 270 268 267 268 268 268 268 268 267 267 267 266 265 264 264 264 264 262 260 258 256 256 255 251 249 249 248 246 245 245 244 243 244 246 247 248 248 247 244 240 240 241 243 245 247 247 247 248 248
296 295 293 291 290 288 287 285 284 282 280 278 277 275 272 269 266 265 266 266 266 266 266 266 266 266 266 265 265 265 264 263 261 258 257 257 254 250 249 248 246 245 245 244 243 242 242 242 245 246 245 243 243 243 245 246 246 247 248 247 248 248 247
298 296 295 293 291 290 288 287 286 284 283 281 279 277 275 272 269 266 264 264 265 265 265 265 265 265 266 265 265 265 264 263 261 259 258 258 255 252 251 248 245 245 245 243 242 243 241 239 243 246 245 245 248 249 249 247 245 247 248 246 245 245 245
300 298 297 295 294 293 291 290 289 287 286 284 282 280 278 276 274 271 267 266 265 264 264 265 265 265 266 265 265 265 264 263 262 260 259 257 255 254 254 251 248 246 245 243 243 244 242 240 244 247 246 247 249 247 246 245 246 247 246 244 243 244 245
303 301 299 297 296 295 294 293 292 290 289 287 286 284 282 280 277 275 272 269 268 267 266 266 265 265 265 265 265 265 265 264 263 262 260 258 256 256 255 254 253 251 248 246 245 245 244 244 246 246 246 248 248 247 247 247 247 246 245 244 244 245 246
306 304 302 300 298 296 295 295 294 294 292 290 289 287 285 281 277 273 271 270 270 271 270 269 269 268 266 265 264 265 265 265 264 263 261 259 257 256 255 255 254 253 252 251 250 248 248 249 249 248 249 252 251 250 249 247 246 245 244 244 244 246 248
312 310 307 304 302 299 298 298 297 297 296 294 294 293 287 279 273 270 267 267 268 268 269 270 271 272 271 269 268 266 266 266 266 264 262 260 256 255 255 254 252 251 250 250 249 250 251 253 253 253 255 257 255 253 251 250 250 249 247 247 248 250 251
317 315 312 309 306 304 303 302 301 300 299 299 302 301 290 280 275 272 268 267 267 266 266 267 267 268 269 270 270 270 268 268 268 267 264 261 258 256 255 253 252 251 249 247 247 250 252 254 255 256 257 257 256 255 255 256 257 257 254 252 250 249 248
320 318 316 314 311 308 307 306 305 304 302 301 305 303 291 285 282 278 273 271 271 270 269 267 266 265 265 266 268 269 269 268 267 266 264 263 261 259 257 256 256 255 252 250 250 251 253 254 255 256 257 256 256 256 255 255 252 248 244 242 242 242 244
323 322 319 317 315 312 311 310 309 308 306 303 304 301 295 292 290 286 282 280 278 278 277 274 270 268 265 265 265 267 270 270 268 266 263 262 262 261 258 258 258 255 253 252 251 252 254 255 255 255 255 255 255 255 252 248 241 236 234 235 238 241 243
323 322 318 316 315 313 311 311 310 309 307 306 304 303 300 298 297 295 293 290 287 285 284 281 277 272 267 264 264 266 268 270 271 270 267 265 263 261 259 259 258 256 254 253 251 250 251 253 255 256 255 255 255 255 251 244 239 238 237 238 241 245 248
323 323 320 316 315 313 311 310 309 307 306 304 303 302 301 300 300 300 298 296 294 291 287 285 283 279 273 269 267 267 267 267 267 266 266 268 267 263 261 261 259 257 257 256 253 250 248 248 250 252 254 254 254 253 251 248 245 243 244 244 246 248 248
322 322 322 318 316 315 313 312 312 311 308 305 304 302 301 300 300 300 300 300 298 295 292 290 287 283 278 274 270 268 267 268 265 260 260 263 264 264 266 267 263 260 260 260 257 254 252 250 247 245 245 248 249 247 247 248 248 246 245 246 246 246 245
322 322 322 321 319 318 317 316 315 315 312 310 309 307 306 305 304 306 307 304 299 297 296 295 292 289 284 279 275 271 267 266 263 259 259 262 264 266 270 271 266 263 263 262 260 256 253 251 249 244 240 239 240 240 240 244 247 248 248 248 244 242 241
323 323 322 321 321 319 317 316 316 316 316 314 313 312 312 310 312 316 312 303 299 300 299 298 296 293 289 285 281 276 271 267 262 257 257 261 267 271 271 268 266 264 262 261 259 256 252 249 247 246 242 237 236 236 236 239 244 248 250 251 249 247 246
325 324 323 322 323 320 318 317 318 320 321 320 317 316 313 311 314 316 308 300 301 303 301 298 297 295 293 291 288 284 281 278 271 263 257 256 259 264 265 264 264 263 261 260 259 257 254 251 247 246 245 242 240 240 239 239 242 245 246 247 249 250 253
328 328 326 324 323 321 320 322 326 328 328 327 324 322 318 314 312 309 303 298 300 301 300 300 300 298 296 293 287 281 275 266 260 257 255 253 253 256 257 257 257 258 260 260 258 256 255 255 252 249 248 248 248 247 245 243 243 244 245 246 248 250 253
332 332 328 325 325 325 327 330 330 330 329 328 326 324 322 319 315 311 307 303 300 299 300 302 301 298 294 288 283 279 274 265 257 253 252 252 252 254 257 258 259 260 261 260 258 256 256 256 255 254 253 254 254 251 247 243 241 241 243 245 247 249 250
338 338 332 327 326 327 329 330 328 326 326 326 325 326 326 324 322 318 314 309 304 301 299 298 297 296 294 291 287 284 280 276 269 262 257 254 253 254 255 259 262 264 265 264 263 260 259 258 257 257 256 255 253 250 246 242 239 237 238 240 243 245 246
345 344 331 323 322 323 325 326 323 322 323 325 328 332 332 329 327 323 315 308 305 303 301 300 299 298 296 294 291 287 283 280 276 271 266 261 258 257 256 258 261 264 266 266 265 264 263 261 260 258 255 252 250 249 248 245 242 240 240 241 243 245 246
349 338 320 315 318 320 322 323 320 320 324 328 334 337 331 324 324 320 309 303 300 299 300 301 300 299 298 296 293 290 287 283 280 277 274 270 266 263 261 260 260 262 264 266 267 267 267 265 262 257 254 252 249 247 247 245 244 243 242 242 243 244 244
343 325 312 312 316 319 322 323 318 317 323 329 337 334 319 312 318 315 303 297 296 298 299 299 299 299 298 297 296 294 292 288 285 281 278 275 272 269 266 264 263 263 263 265 265 265 265 266 265 260 255 252 248 245 243 242 242 242 242 242 243 243 244
320 310 307 309 312 316 319 315 310 313 319 327 335 326 305 297 302 300 294 293 296 299 301 301 301 300 299 298 298 297 296 294 291 287 283 279 276 274 272 269 266 264 264 264 263 261 260 261 263 261 257 253 250 247 244 241 240 241 241 242 243 243 242
309 307 308 310 311 314 313 307 307 313 317 324 333 318 297 293 297 296 294 297 302 305 306 305 305 304 302 300 299 298 297 296 295 292 289 285 281 279 277 274 271 268 265 263 262 260 257 254 255 257 257 256 253 250 245 242 241 242 242 242 242 242 241
314 313 313 313 313 314 312 310 314 317 319 327 332 311 299 301 307 304 304 308 310 312 313 313 312 312 310 308 306 303 301 300 298 297 295 292 288 283 280 277 276 275 272 269 266 264 260 255 252 251 252 254 254 250 247 246 246 244 242 240 241 242 243
318 319 319 318 319 320 318 319 322 324 324 328 322 308 308 318 322 318 317 318 318 318 320 320 319 320 320 319 317 314 310 307 305 304 302 300 297 292 287 282 278 276 275 274 272 270 267 262 257 251 248 248 250 250 250 250 249 246 241 238 239 243 246
325 325 326 328 329 328 327 328 329 329 329 326 318 315 321 328 326 322 321 323 326 330 331 330 331 331 330 330 329 327 323 319 315 311 308 305 302 300 296 290 285 281 277 275 274 272 270 268 264 260 254 249 248 249 250 249 246 242 238 237 239 242 245
333 335 335 336 335 334 332 332 332 333 335 330 324 325 329 330 328 328 330 333 337 341 342 342 342 339 338 338 336 335 334 331 327 323 317 311 307 305 303 300 296 291 285 281 277 274 273 271 268 265 262 257 253 250 248 246 244 241 240 240 241 242 242
338 341 340 337 336 336 336 336 337 340 339 334 331 333 336 337 339 343 345 345 346 346 346 348 346 343 342 341 338 338 338 336 334 333 328 322 316 311 309 308 307 304 299 292 285 281 278 275 271 268 265 262 259 254 251 248 247 245 244 243 242 242 241